Location: Newark
(34.1333°N, 7.9667°W)
Time: 22:57:23
(UTC+00:00)

DOVE 4 - Visible Passes

Search period start: 30 May 2024 00:00
Search period end: 09 June 2024 00:00
Orbit: 582 x 778 km, 97.7° (Epoch: 30 May)

Date Brightness Start Highest point End Pass type
(mag) Time Alt. Az. Time Alt. Az. Time Alt. Az.
30 May ? 22:05:29 10° N 22:10:41 82° WNW 22:11:40 59° SSW visible
31 May ? 21:04:57 10° NE 21:09:00 23° E 21:09:31 23° ESE visible
31 May ? 22:41:39 10° N 22:46:19 35° WNW 22:47:55 28° WSW visible
01 Jun ? 21:39:53 10° NNE 21:44:57 54° E 21:45:45 49° SE visible
01 Jun ? 23:18:43 10° NNW 23:21:44 16° WNW 23:24:11 12° W visible
02 Jun ? 20:41:03 10° ENE 20:43:01 12° E 20:43:35 12° E visible
02 Jun ? 22:15:36 10° N 22:20:43 64° WNW 22:21:59 47° SW visible
03 Jun ? 21:14:39 10° NE 21:19:07 29° E 21:19:48 28° ESE visible
03 Jun ? 22:51:57 10° NNW 22:56:16 28° WNW 22:58:13 21° WSW visible
04 Jun ? 21:49:51 10° NNE 21:55:00 70° E 21:56:01 54° SSE visible
04 Jun ? 23:29:37 10° NW 23:31:36 12° WNW 23:33:33 10° W visible
05 Jun ? 20:50:05 10° NE 20:53:07 16° E 20:53:48 15° E visible
05 Jun ? 22:25:43 10° N 22:30:40 49° WNW 22:32:13 37° WSW visible
06 Jun ? 21:24:24 10° NNE 21:29:09 37° E 21:30:00 34° ESE visible
06 Jun ? 23:02:18 10° NNW 23:06:08 22° WNW 23:08:24 16° WSW visible
07 Jun ? 21:59:49 10° NNE 22:04:57 90° E 22:06:11 53° SSW visible
08 Jun ? 20:59:28 10° NE 21:03:09 20° E 21:03:56 19° ESE visible
08 Jun ? 22:35:51 10° N 22:40:33 38° WNW 22:42:21 28° WSW visible
